Date String (YYYY-MM-DD hh:mm:ss) UTC,Instrument flags,absolute air pressure of the measurement (hPa),sample flow rate (lpm),inlet stack bypass flow (lpm),air temperature of the measurement (°C),ambient temperature measured by the external sensor (°C),aerosol sample conditioner tube jacket temperature (°C),OPC LED temperature (°C),internal box temperature (°C),relative humidity of the measurement (%),span deviation,mass concentration of particles derived from Lorenz-Mie calculation of OPC scattering (μg/m³),mass concentration of particles derived from Lorenz-Mie calculation of OPC scattering (μg/m³),mass concentration of particles derived from Lorenz-Mie calculation of OPC scattering (μg/m³)
DateTimeUTC,F1_M11,P_M11,Q1_M11,Q2_M11,T1_M11,T2_M11,T3_M11,T4_M11,T5_M11,U1_M11,ZSPAN_M11,X0_M11,X2_M11,X1_M11
2024-05-02 03:00:00,SystemResetWarning,0822.4,5.00,000.00,025.4,024.8,000.0,033.8,027.2,022.4,0000.0,0006.49,0002.00,0001.07
2024-05-02 03:01:00,SystemResetWarning,0822.4,5.00,000.00,025.4,024.8,000.0,033.8,027.3,022.4,0000.0,0006.80,0002.01,0001.07
2024-05-02 03:02:00,SystemResetWarning,0822.4,5.00,000.00,025.5,024.8,000.0,033.8,027.3,022.2,0000.0,0007.02,0002.11,0001.08
2024-05-02 03:03:00,SystemResetWarning,0822.4,5.00,000.00,025.5,024.8,000.0,033.8,027.3,020.6,0000.0,0006.92,0002.14,0001.09
2024-05-02 03:04:00,SystemResetWarning,0822.4,5.01,000.00,025.5,024.8,000.0,033.9,027.3,021.8,0000.0,0005.99,0002.22,0001.13
2024-05-02 03:05:00,SystemResetWarning,0822.4,5.00,000.00,025.5,024.8,000.0,033.9,027.3,022.2,0000.0,0005.93,0002.25,0001.15
2024-05-02 03:06:00,SystemResetWarning,0822.5,5.01,000.00,025.5,024.8,000.0,033.9,027.3,022.0,0000.0,0006.08,0002.33,0001.15
2024-05-02 03:07:00,SystemResetWarning,0822.7,4.99,000.00,025.5,024.9,000.0,033.9,027.3,021.6,0000.0,0007.18,0002.41,0001.17
2024-05-02 03:08:00,SystemResetWarning,0823.1,4.99,000.00,025.5,024.9,000.0,033.9,027.3,020.4,0000.0,0007.25,0002.39,0001.15
2024-05-02 03:09:00,SystemResetWarning,0822.7,5.01,000.00,025.5,024.9,000.0,033.9,027.3,018.0,0000.0,0007.24,0002.43,0001.16
2024-05-02 03:10:00,SystemResetWarning,0822.6,5.01,000.00,025.5,024.9,000.0,033.9,027.3,016.9,0000.0,0007.27,0002.55,0001.22
2024-05-02 03:11:00,SystemResetWarning,0822.7,5.00,000.00,025.6,024.9,000.0,033.9,027.3,016.6,0000.0,0007.47,0002.69,0001.29
2024-05-02 03:12:00,SystemResetWarning,0822.7,4.99,000.00,025.6,024.9,000.0,033.9,027.3,016.4,0000.0,0007.48,0002.84,0001.36
2024-05-02 03:13:00,SystemResetWarning,0822.8,4.99,000.00,025.6,024.9,000.0,033.9,027.4,016.3,0000.0,0007.55,0002.99,0001.44
2024-05-02 03:14:00,SystemResetWarning,0822.8,5.02,000.00,025.6,024.9,000.0,033.9,027.4,016.2,0000.0,0007.62,0003.07,0001.50
2024-05-02 03:15:00,SystemResetWarning,0823.1,5.01,000.00,025.6,024.9,000.0,033.9,027.3,016.3,0000.0,0007.75,0003.12,0001.54
2024-05-02 03:16:00,SystemResetWarning,0822.9,4.99,000.00,025.6,024.9,000.0,033.9,027.3,016.2,0000.0,0007.97,0003.23,0001.59
2024-05-02 03:17:00,SystemResetWarning,0823.0,4.99,000.00,025.6,024.9,000.0,033.9,027.3,016.4,0000.0,0008.06,0003.29,0001.65
2024-05-02 03:18:00,SystemResetWarning,0823.0,5.02,000.00,025.6,024.9,000.0,033.9,027.3,016.4,0000.0,0007.86,0003.31,0001.70
2024-05-02 03:19:00,SystemResetWarning,0823.1,5.00,000.00,025.6,024.9,000.0,033.9,027.3,016.3,0000.0,0008.08,0003.37,0001.74
2024-05-02 03:20:00,SystemResetWarning,0823.1,4.99,000.00,025.6,024.9,000.0,033.9,027.3,016.4,0000.0,0008.15,0003.42,0001.77
2024-05-02 03:21:00,SystemResetWarning,0823.1,4.99,000.00,025.6,024.9,000.0,033.9,027.4,017.8,0000.0,0008.07,0003.39,0001.77
2024-05-02 03:22:00,SystemResetWarning,0823.2,5.00,000.00,025.6,024.9,000.0,033.9,027.4,020.4,0000.0,0008.25,0003.35,0001.75
2024-05-02 03:23:00,SystemResetWarning,0823.2,5.00,000.00,025.6,024.9,000.0,033.9,027.4,021.1,0000.0,0008.28,0003.28,0001.71
2024-05-02 03:24:00,SystemResetWarning,0823.3,5.00,000.00,025.6,024.9,000.0,033.9,027.4,021.4,0000.0,0008.69,0003.17,0001.65
2024-05-02 03:25:00,SystemResetWarning,0823.3,5.01,000.00,025.6,024.9,000.0,033.9,027.4,021.4,0000.0,0009.44,0003.14,0001.62
2024-05-02 03:26:00,SystemResetWarning,0823.3,4.99,000.00,025.6,024.9,000.0,033.9,027.3,021.6,0000.0,0009.70,0003.03,0001.58
2024-05-02 03:27:00,SystemResetWarning,0823.3,4.98,000.00,025.6,024.9,000.0,033.9,027.3,021.4,0000.0,0009.47,0002.84,0001.54
2024-05-02 03:28:00,SystemResetWarning,0823.3,5.01,000.00,025.6,024.9,000.0,033.9,027.3,019.4,0000.0,0009.31,0002.77,0001.51
2024-05-02 03:29:00,SystemResetWarning,0823.2,5.01,000.00,025.6,024.9,000.0,033.9,027.4,017.5,0000.0,0009.06,0002.73,0001.50
2024-05-02 03:30:00,SystemResetWarning,0823.2,5.00,000.00,025.6,024.9,000.0,033.9,027.4,017.6,0000.0,0008.71,0002.66,0001.48
2024-05-02 03:31:00,SystemResetWarning,0823.2,5.00,000.00,025.6,024.9,000.0,033.9,027.4,017.7,0000.0,0009.05,0002.55,0001.42
2024-05-02 03:32:00,SystemResetWarning,0823.3,5.00,000.00,025.6,024.9,000.0,033.9,027.3,017.5,0000.0,0009.04,0002.43,0001.36
2024-05-02 03:33:00,SystemResetWarning,0823.3,5.00,000.00,025.6,024.9,000.0,033.9,027.3,017.5,0000.0,0008.90,0002.36,0001.30
2024-05-02 03:34:00,SystemResetWarning,0823.3,5.00,000.00,025.6,024.8,000.0,033.9,027.3,017.5,0000.0,0008.57,0002.36,0001.26
2024-05-02 03:35:00,SystemResetWarning,0823.4,5.00,000.00,025.6,024.8,000.0,033.9,027.4,017.4,0000.0,0008.34,0002.48,0001.24
2024-05-02 03:36:00,SystemResetWarning,0823.4,5.00,000.00,025.6,024.8,000.0,033.9,027.3,017.6,0000.0,0007.27,0002.42,0001.22
2024-05-02 03:37:00,SystemResetWarning,0823.5,5.00,000.00,025.6,024.8,000.0,033.9,027.3,017.7,0000.0,0006.65,0002.42,0001.18
2024-05-02 03:38:00,SystemResetWarning,0823.5,5.00,000.00,025.6,024.8,000.0,033.9,027.3,017.8,0000.0,0006.43,0002.44,0001.16
2024-05-02 03:39:00,SystemResetWarning,0823.6,4.99,000.00,025.6,024.9,000.0,033.9,027.3,017.9,0000.0,0006.21,0002.35,0001.14
2024-05-02 03:40:00,SystemResetWarning,0823.6,5.00,000.00,025.6,024.9,000.0,033.9,027.3,017.8,0000.0,0006.12,0002.28,0001.09
2024-05-02 03:41:00,SystemResetWarning,0823.7,5.00,000.00,025.6,024.9,000.0,033.9,027.3,017.7,0000.0,0006.69,0002.24,0001.05
2024-05-02 03:42:00,SystemResetWarning,0823.7,4.99,000.00,025.6,024.9,000.0,033.8,027.3,017.7,0000.0,0005.91,0002.28,0001.07
2024-05-02 03:43:00,SystemResetWarning,0823.7,5.00,000.00,025.6,024.9,000.0,033.8,027.3,017.6,0000.0,0006.13,0002.35,0001.11
2024-05-02 03:44:00,SystemResetWarning,0823.7,5.00,000.00,025.6,024.9,000.0,033.8,027.3,017.3,0000.0,0006.80,0002.49,0001.16
2024-05-02 03:45:00,SystemResetWarning,0823.8,5.00,000.00,025.6,024.9,000.0,033.8,027.3,017.4,0000.0,0007.08,0002.58,0001.21
2024-05-02 03:46:00,SystemResetWarning,0823.7,5.00,000.00,025.6,024.9,000.0,033.8,027.3,017.5,0000.0,0007.03,0002.60,0001.25
2024-05-02 03:47:00,SystemResetWarning,0823.6,5.00,000.00,025.6,024.9,000.0,033.9,027.3,017.5,0000.0,0007.49,0002.71,0001.29
2024-05-02 03:48:00,SystemResetWarning,0823.7,5.00,000.00,025.6,024.9,000.0,033.8,027.3,017.3,0000.0,0007.59,0002.80,0001.34
2024-05-02 03:49:00,SystemResetWarning,0823.6,5.01,000.00,025.6,024.9,000.0,033.9,027.3,017.0,0000.0,0007.71,0002.86,0001.39
2024-05-02 03:50:00,SystemResetWarning,0823.6,5.01,000.00,025.6,024.9,000.0,033.9,027.3,016.5,0000.0,0007.93,0003.01,0001.41
2024-05-02 03:51:00,SystemResetWarning,0823.5,5.00,000.00,025.6,024.9,000.0,033.9,027.3,016.0,0000.0,0008.01,0003.06,0001.42
2024-05-02 03:52:00,SystemResetWarning,0823.5,5.00,000.00,025.6,024.9,000.0,033.9,027.3,016.0,0000.0,0007.43,0002.98,0001.42
2024-05-02 03:53:00,SystemResetWarning,0823.6,5.01,000.00,025.6,024.9,000.0,033.9,027.3,015.7,0000.0,0007.28,0002.88,0001.40
2024-05-02 03:54:00,SystemResetWarning,0823.6,5.00,000.00,025.6,024.8,000.0,033.9,027.3,015.9,0000.0,0006.84,0002.81,0001.37
2024-05-02 03:55:00,SystemResetWarning,0823.7,4.99,000.00,025.6,024.8,000.0,033.9,027.3,016.0,0000.0,0005.97,0002.64,0001.31
2024-05-02 03:56:00,SystemResetWarning,0823.8,5.00,000.00,025.6,024.8,000.0,033.8,027.3,015.8,0000.0,0005.51,0002.50,0001.26
2024-05-02 03:57:00,SystemResetWarning,0824.0,5.00,000.00,025.6,024.8,000.0,033.8,027.3,015.9,0000.0,0005.22,0002.39,0001.21
2024-05-02 03:58:00,SystemResetWarning,0824.0,5.00,000.00,025.6,024.8,000.0,033.8,027.3,018.2,0000.0,0004.58,0002.30,0001.16
2024-05-02 03:59:00,SystemResetWarning,0824.0,5.00,000.00,025.6,024.8,000.0,033.8,027.3,019.9,0000.0,0004.45,0002.25,0001.14
